LICJLIRN

Guest
Details From LICJ - Palermo
To LIRN - Naples Capodichino
Flight Number -
Tags Generated
Created
Modified
Stats Distance 172 nm / 319 km
Max Altitude 0 ft / 0 m
Waypoints 2
Social Downloads 5
Likes 0
Share VATSIM

Download

Looking for another format? Having issues loading an existing format? Contact us
Advertisement - Login to hide

Notes

Generated

Route

LICJ LIRN

ID Type Via Altitude Latitude Longitude Leg Dist Tot Dist Heading (true) Name
O LICJ APT - 0 ft / 0 m 38.16614˚ 13.08562˚ - 0 nm - -
O LIRN APT - 0 ft / 0 m 40.87979˚ 14.27754˚ 172 nm 172 nm 18° / 19° -

Altitude Profile

Advertisement - Login to hide

Weather


0- 5 10 15 20 25 30 35+ Temperature / ° C

Clouds and Precipitation
Forecast for 2018-05-20 12:00 UTC. Updated an hour ago

Ground ~20,000 ft ~40,000 ft Winds

LICJ

Details ICAO LICJ (PMO)
Name PALERMO
Region Italy
Timezone Europe/Rome (UTC+2.0)
Stats Elevation 65 ft / 20 m (AMSL)
Location 38.177377° 13.097035°
Runways 2
Magnetic Variation 2.992° E

METAR

LICJ 200950Z 07016KT CAVOK 23/16 Q1011

Decode

TAF

TAF LICJ 200500Z 2006/2106 VRB05KT 9999 FEW030 BECMG 2008/2010 04015KT BECMG 2018/2020 VRB05KT

Decode

Departure Runways

ID Width Length Bearing (true) Bearing (mag) Surface Threshold Offset Overrun Length
02 148 ft / 45 m 6,813 ft / 2,077 m 23.81° 20.82° Asphalt 10 ft / 3 m 0 ft / 0 m
07 197 ft / 60 m 10,685 ft / 3,257 m 66.82° 63.83° Asphalt 404 ft / 123 m 0 ft / 0 m
20 148 ft / 45 m 6,813 ft / 2,077 m 203.81° 200.82° Asphalt 10 ft / 3 m 0 ft / 0 m
25 197 ft / 60 m 10,685 ft / 3,257 m 246.85° 243.86° Asphalt 679 ft / 207 m 0 ft / 0 m

LIRN

Details ICAO LIRN (NAP)
Name Naples Capodichino
Region Italy
Timezone Europe/Rome (UTC+2.0)
Stats Elevation 294 ft / 90 m (AMSL)
Location 40.886032° 14.290783°
Runways 1
Magnetic Variation 3.352° E

METAR

LIRN 200950Z VRB03KT CAVOK 27/08 Q1013 NOSIG

Decode

TAF

TAF LIRN 200500Z 2006/2106 VRB05KT 9999 FEW030

Decode

Destination Runways

ID Width Length Bearing (true) Bearing (mag) Surface Threshold Offset Overrun Length
06 148 ft / 45 m 8,612 ft / 2,625 m 58.03° 54.68° Asphalt 1,309 ft / 399 m 0 ft / 0 m
24 148 ft / 45 m 8,612 ft / 2,625 m 238.05° 234.70° Asphalt 624 ft / 190 m 0 ft / 0 m

Approach Navaids

Runway Type Ident Frequency Range Bearing (true) Bearing (mag) Slope Elevation
06 Localiser NPC 110.15 MHz 18 nm / 33 km 52.74° 49.38° - 294 ft / 90 m (AMSL)
06 Glidescope NPC 110.15 MHz 10 nm / 19 km 58.04° 54.69° 3.50° 294 ft / 90 m (AMSL)
06 DME NPC 110.15 MHz 25 nm / 46 km - - - 294 ft / 90 m (AMSL)
24 Localiser INPL 109.50 MHz 18 nm / 33 km 238.03° 234.67° - 288 ft / 88 m (AMSL)
24 Glidescope INPL 109.50 MHz 10 nm / 19 km 238.04° 234.69° 3.33° 250 ft / 76 m (AMSL)
24 DME INPL 109.50 MHz 25 nm / 46 km - - - 250 ft / 76 m (AMSL)

Popular Alternatives